Location: Unspecified
(0.0000°N, 0.0000°E)
Time: 01:09:38
(UTC+00:00)

Tiros 1 despin weight - Pass Details

Date: 10 October 2020
Orbit: 594 x 641 km, 48.2° (Epoch: 25 October)

Event Time Altitude Azimuth Distance (km) Brightness Sun altitude
Exits shadow 03:37:35 28° 98° (E) 1,124 ? -32.1°
Drops below altitude 10° 03:40:21 10° 65° (ENE) 1,919 ? -31.4°
Sets 03:42:47 0° 55° (NE) 2,815 ? -30.8°
